Location: Bakov nad Jizerou
(50.4784°N, 14.9394°E)
Time: 10:38:48
(UTC+00:00)

ONEWEB-0358 - Visible Passes

Search period start: 17 August 2022 00:00
Search period end: 27 August 2022 00:00
Orbit: 896 x 900 km, 87.8° (Epoch: 16 August)

Date Brightness Start Highest point End Pass type
(mag) Time Alt. Az. Time Alt. Az. Time Alt. Az.
17 Aug ? 00:37:24 10° NNE 00:42:10 25° ENE 00:46:56 10° SE visible
17 Aug ? 02:19:58 10° N 02:25:43 61° W 02:31:26 10° SSW visible
18 Aug ? 00:39:29 10° NNE 00:44:28 28° ENE 00:49:26 10° SE visible
18 Aug ? 02:22:14 10° N 02:27:53 54° W 02:33:30 10° SSW visible
19 Aug ? 00:41:35 10° NNE 00:46:46 32° ENE 00:51:54 10° SE visible
19 Aug ? 02:24:29 10° NNW 02:30:03 48° W 02:35:13 12° SSW visible
20 Aug ? 00:43:42 10° NNE 00:49:02 35° ENE 00:53:59 12° SE visible
20 Aug ? 02:26:45 10° NNW 02:32:13 42° W 02:36:59 13° SSW visible
21 Aug ? 00:45:50 10° N 00:51:18 40° E 00:55:46 15° SE visible
21 Aug ? 02:29:03 10° NNW 02:34:22 38° W 02:38:45 15° SW visible
22 Aug ? 00:47:59 10° N 00:53:34 45° E 00:57:34 18° SE visible
22 Aug ? 02:31:21 10° NNW 02:36:30 34° W 02:40:33 15° SW visible
23 Aug ? 00:50:08 10° N 00:55:49 50° E 00:59:22 22° SSE visible
23 Aug ? 02:33:40 10° NNW 02:38:39 30° WNW 02:42:22 16° SW visible
23 Aug ? 23:12:41 10° NE 23:13:34 10° ENE 23:14:26 10° ENE visible
24 Aug ? 00:52:18 10° N 00:58:03 57° E 01:01:13 27° SSE visible
24 Aug ? 02:36:00 10° NNW 02:40:47 27° WNW 02:44:12 16° WSW visible
24 Aug ? 23:13:52 10° NE 23:15:56 12° ENE 23:18:00 10° E visible
25 Aug ? 00:54:28 10° N 01:00:18 64° E 01:03:03 32° SSE visible
25 Aug ? 02:38:21 10° NNW 02:42:54 24° WNW 02:46:03 16° WSW visible
25 Aug ? 23:15:31 10° NE 23:18:18 13° ENE 23:21:03 10° E visible
26 Aug ? 00:56:40 10° N 01:02:31 72° E 01:04:55 37° SSE visible
26 Aug ? 02:40:44 10° NNW 02:45:01 22° WNW 02:47:55 15° WSW visible
26 Aug ? 23:17:21 10° NNE 23:20:39 15° ENE 23:23:49 10° E visible
